Regional Weather Roundup
Issued by NWS State College, PA

Home | Current Version | Previous Version | Graphics & Text | Print | Product List | Glossary Off
Versions: 1 2 3 4 5 6 7 8 9 10 11 12 13 14 15 16 17 18 19 20 21 22 23 24 25 26 27 28 29 30 31 32 33 34 35 36 37 38 39 40 41 42 43 44 45 46 47 48 49 50

000
ASUS41 KCTP 121603
RWRCTP

REGIONAL WEATHER ROUNDUP
NATIONAL WEATHER SERVICE STATE COLLEGE PA
1200 PM EDT SAT JUL 12 2014

Note: "fair" indicates few or no clouds below 12,000 feet with no
significant weather and/or obstructions to visibility.

* = STATION THAT DOES NOT REPORT PRECIPITATION /E.G. RAIN...SNOW...ETC/
    THUNDER OR FOG.

PAZ002>004-007>009-013>016-020>023-029>032-121700-
WESTERN PENNSYLVANIA

CITY           SKY/WX    TMP DP  RH WIND       PRES   REMARKS
ERIE           SUNNY     78  63  59 N6        30.17S
MEADVILLE      MOSUNNY   80  58  46 VRB5      30.20F
FRANKLIN*      MOSUNNY   79  57  47 SW6       30.22F
NEW CASTLE       N/A     82  61  49 VRB3      30.20S
BEAVER COUNTY  PTSUNNY   82  59  44 W6        30.20S
BUTLER*        MOSUNNY   81  59  47 SW7       30.22S
PITTSBURGH INT PTSUNNY   81  58  45 SW8       30.20S
PITTSBURGH     MOSUNNY   82  58  43 VRB7      30.20S
INDIANA*       MOSUNNY   81  57  44 W10       30.25S
LATROBE        MOSUNNY   81  63  54 W12       30.22S
WASHINGTON CO* SUNNY     81  61  50 S6        30.21S
$$

PAZ004>006-010>012-017>019-024>028-033>037-041-042-045-046-049>053-121700-
CENTRAL PENNSYLVANIA

CITY           SKY/WX    TMP DP  RH WIND       PRES   REMARKS
BRADFORD       MOSUNNY   77  60  55 VRB5      30.22S
DUBOIS         MOSUNNY   79  60  52 VRB5      30.21S
CLEARFIELD     PTSUNNY   80  57  45 SW10G22   30.21S
JOHNSTOWN      MOSUNNY   76  59  55 SW7       30.25S
ALTOONA        MOSUNNY   80  64  58 S7        30.22F
STATE COLLEGE  MOSUNNY   81  64  57 W7        30.19F
WILLIAMSPORT   MOSUNNY   82  67  60 CALM      30.17F
SELINSGROVE    MOSUNNY   81  70  69 VRB6      30.19F
FT INDIANTOWN  NOT AVBL
CAPITAL CITY   PTSUNNY   82  69  64 SE7       30.19F
HARRISBURG     PTSUNNY   88  69  53 SW6       30.18F
YORK           MOSUNNY   82  68  62 VRB6      30.19F
$$

PAZ038>040-043-044-047-048-054-055-060>062-067>071-121700-
EASTERN PENNSYLVANIA

CITY           SKY/WX    TMP DP  RH WIND       PRES   REMARKS
SCRANTON       MOSUNNY   82  66  58 SW5       30.20F
MOUNT POCONO   PTSUNNY   77  63  61 SW9G17    30.26F
ALLENTOWN      MOSUNNY   83  64  52 S7        30.21F
QUAKERTOWN*    MOSUNNY   82  66  57 S5        30.23F
READING        MOSUNNY   84  68  58 SW8       30.20S
LANCASTER      PTSUNNY   81  69  67 S8        30.20F
COATESVILLE    MOSUNNY   81  68  65 S5        30.23F
POTTSTOWN      MOSUNNY   82  67  60 VRB7      30.22F
BLUE BELL      MOSUNNY   82  68  61 SW3       30.20F
DOYLESTOWN     PTSUNNY   81  66  60 VRB5      30.21F
WILLOW GROVE   NOT AVBL
NORTH PHILA    MOSUNNY   85  61  44 SE6       30.22F
PHILADELPHIA   MOSUNNY   84  63  49 S5        30.21F
$$


USA.gov is the U.S. government's official web portal to all federal, state and local government web resources and services.